Location: Bijele Vode
(45.2833°N, 16.2000°E)
Time: 05:48:14
(UTC+00:00)

Cosmos 1125 Rocket - Pass Details

Date: 22 January 2021
Orbit: 757 x 781 km, 74.0° (Epoch: 05 March)

Event Time Altitude Azimuth Distance (km) Brightness Sun altitude
Exits shadow 04:40:44 - 345° (NNW) 3,042 6.4 -18.3°
Reaches altitude 10° 04:42:41 10° 352° (N) 2,336 5.8 -18.0°
Maximum altitude 04:47:39 39° 61° (ENE) 1,153 4.8 -17.1°
Drops below altitude 10° 04:52:36 10° 130° (SE) 2,330 7.0 -16.2°
Sets 04:55:08 0° 138° (SE) 3,254 7.7 -15.8°
